NSZ4052 ESNS-ESSA

Flight info

Callsign NSZ4052
Flight time 0h 56m
Altitude 34000
Route KETEL DCT BODRI DCT SIPRI T31 VACRA
Aircraft B738/M-SDE2E3FGHIRWXY/LB2

Departure

Time 2026-04-20 13:05
Airport Skellefteå Airport (ESNS)

Arrival

Time 2026-04-20 14:01
Airport Stockholm-Arlanda Airport (ESSA)
Time Latitude Longitude Altitude Speed Heading
2026-04-20 12:48 64.62384 21.06694 153 ft 0 kts 167°
2026-04-20 12:59 64.62383 21.06695 153 ft 0 kts 154°
2026-04-20 12:59 64.62392 21.06729 153 ft 5 kts 29°
2026-04-20 13:00 64.62420 21.06765 154 ft 5 kts 27°
2026-04-20 13:00 64.62457 21.06801 155 ft 0 kts 15°
2026-04-20 13:00 64.62460 21.06803 155 ft 2 kts 15°
2026-04-20 13:00 64.62491 21.06824 155 ft 6 kts 15°
2026-04-20 13:01 64.62545 21.06856 157 ft 8 kts
2026-04-20 13:01 64.62586 21.06795 157 ft 6 kts 300°
2026-04-20 13:01 64.62602 21.06689 158 ft 8 kts 287°
2026-04-20 13:01 64.62624 21.06518 158 ft 13 kts 286°
2026-04-20 13:02 64.62656 21.06260 154 ft 19 kts 286°
2026-04-20 13:02 64.62695 21.05951 151 ft 20 kts 286°
2026-04-20 13:02 64.62696 21.05653 146 ft 17 kts 264°
2026-04-20 13:02 64.62730 21.05650 146 ft 6 kts 102°
2026-04-20 13:03 64.62726 21.05702 147 ft 0 kts 106°
2026-04-20 13:04 64.62709 21.05838 149 ft 34 kts 106°
2026-04-20 13:04 64.62581 21.06881 157 ft 97 kts 107°
2026-04-20 13:04 64.62333 21.08849 136 ft 152 kts 105°
2026-04-20 13:05 64.62009 21.11354 454 ft 169 kts 107°
2026-04-20 13:05 64.61643 21.14064 962 ft 180 kts 106°
2026-04-20 13:05 64.61259 21.16898 1447 ft 193 kts 106°
2026-04-20 13:05 64.60828 21.20014 1829 ft 212 kts 110°
2026-04-20 13:06 64.60001 21.22943 2252 ft 227 kts 140°
2026-04-20 13:06 64.58588 21.24733 2749 ft 238 kts 164°
2026-04-20 13:06 64.56908 21.25095 3175 ft 251 kts 184°
2026-04-20 13:06 64.55144 21.24722 3629 ft 264 kts 186°
2026-04-20 13:07 64.53297 21.24367 4223 ft 270 kts 184°
2026-04-20 13:07 64.51402 21.24130 4872 ft 275 kts 183°
2026-04-20 13:07 64.49488 21.23910 5545 ft 278 kts 183°
2026-04-20 13:07 64.47555 21.23664 6187 ft 282 kts 183°
2026-04-20 13:08 64.45592 21.23395 6815 ft 286 kts 183°
2026-04-20 13:08 64.43608 21.23111 7466 ft 289 kts 183°
2026-04-20 13:08 64.41596 21.22820 8178 ft 293 kts 183°
2026-04-20 13:08 64.39552 21.22525 8831 ft 297 kts 183°
2026-04-20 13:09 64.37515 21.22232 9520 ft 301 kts 183°
2026-04-20 13:09 64.35407 21.21930 10242 ft 304 kts 183°
2026-04-20 13:09 64.33321 21.21631 10885 ft 310 kts 182°
2026-04-20 13:09 64.31110 21.21317 11239 ft 326 kts 182°
2026-04-20 13:10 64.28821 21.20992 11597 ft 340 kts 182°
2026-04-20 13:10 64.26417 21.20652 11963 ft 355 kts 182°
2026-04-20 13:10 64.23915 21.20296 12552 ft 361 kts 182°
2026-04-20 13:10 64.21429 21.19934 13233 ft 365 kts 183°
2026-04-20 13:11 64.18918 21.19095 13869 ft 371 kts 192°
2026-04-20 13:11 64.16444 21.17469 14554 ft 374 kts 198°
2026-04-20 13:11 64.13998 21.15444 15291 ft 377 kts 200°
2026-04-20 13:11 64.11549 21.13278 15964 ft 380 kts 200°
2026-04-20 13:12 64.09086 21.11106 16637 ft 383 kts 200°
2026-04-20 13:12 64.06606 21.08966 17293 ft 387 kts 199°
2026-04-20 13:12 64.04065 21.06823 17922 ft 390 kts 199°
2026-04-20 13:12 64.01530 21.04727 18548 ft 393 kts 198°
2026-04-20 13:13 63.98972 21.02639 19162 ft 396 kts 198°
2026-04-20 13:13 63.96368 21.00531 19762 ft 399 kts 198°
2026-04-20 13:13 63.93776 20.98443 20382 ft 401 kts 198°
2026-04-20 13:13 63.91153 20.96336 20885 ft 405 kts 198°
2026-04-20 13:14 63.88475 20.94188 21546 ft 406 kts 198°
2026-04-20 13:14 63.85820 20.92061 22082 ft 410 kts 198°
2026-04-20 13:14 63.83147 20.89925 22613 ft 413 kts 198°
2026-04-20 13:14 63.80456 20.87777 23135 ft 415 kts 198°
2026-04-20 13:15 63.77737 20.85611 23646 ft 418 kts 198°
2026-04-20 13:15 63.74994 20.83431 24187 ft 421 kts 198°
2026-04-20 13:15 63.72246 20.81251 24676 ft 424 kts 197°
2026-04-20 13:15 63.69461 20.79046 25163 ft 427 kts 197°
2026-04-20 13:16 63.66648 20.76823 25675 ft 429 kts 197°
2026-04-20 13:16 63.63835 20.74604 26153 ft 432 kts 197°
2026-04-20 13:16 63.60954 20.72337 26634 ft 435 kts 197°
2026-04-20 13:16 63.58109 20.70102 27100 ft 437 kts 197°
2026-04-20 13:17 63.55222 20.67839 27563 ft 440 kts 197°
2026-04-20 13:17 63.52328 20.65577 27980 ft 443 kts 197°
2026-04-20 13:17 63.49411 20.63301 28417 ft 445 kts 197°
2026-04-20 13:17 63.46521 20.61051 28808 ft 448 kts 197°
2026-04-20 13:18 63.43587 20.58772 29210 ft 451 kts 197°
2026-04-20 13:18 63.40630 20.56481 29591 ft 454 kts 197°
2026-04-20 13:18 63.37638 20.54166 30008 ft 456 kts 196°
2026-04-20 13:18 63.34649 20.51859 30384 ft 458 kts 196°
2026-04-20 13:19 63.31649 20.49548 30826 ft 459 kts 196°
2026-04-20 13:19 63.28681 20.47264 31490 ft 454 kts 196°
2026-04-20 13:19 63.25713 20.44983 32007 ft 451 kts 196°
2026-04-20 13:19 63.22758 20.42720 32473 ft 450 kts 196°
2026-04-20 13:20 63.19816 20.40472 32918 ft 449 kts 195°
2026-04-20 13:20 63.16876 20.38233 33303 ft 449 kts 195°
2026-04-20 13:20 63.13963 20.36018 33723 ft 448 kts 195°
2026-04-20 13:20 63.11008 20.33776 34125 ft 447 kts 194°
2026-04-20 13:21 63.08080 20.31558 34476 ft 447 kts 194°
2026-04-20 13:21 63.05165 20.29357 34837 ft 446 kts 194°
2026-04-20 13:21 63.02242 20.27152 35226 ft 444 kts 194°
2026-04-20 13:21 62.99359 20.24984 35499 ft 443 kts 194°
2026-04-20 13:22 62.96466 20.22815 35667 ft 444 kts 194°
2026-04-20 13:22 62.93536 20.20624 35836 ft 444 kts 194°
2026-04-20 13:22 62.90626 20.18453 35997 ft 444 kts 194°
2026-04-20 13:22 62.87704 20.16276 36139 ft 444 kts 194°
2026-04-20 13:23 62.84823 20.14134 36268 ft 445 kts 194°
2026-04-20 13:23 62.81885 20.11954 36388 ft 446 kts 194°
2026-04-20 13:23 62.78977 20.09800 36492 ft 447 kts 194°
2026-04-20 13:23 62.76015 20.07611 36606 ft 448 kts 194°
2026-04-20 13:24 62.73096 20.05458 36759 ft 448 kts 195°
2026-04-20 13:24 62.70171 20.03302 36936 ft 448 kts 195°
2026-04-20 13:24 62.67233 20.01141 37130 ft 448 kts 195°
2026-04-20 13:24 62.64259 19.98959 37308 ft 449 kts 195°
2026-04-20 13:25 62.61333 19.96818 37481 ft 449 kts 195°
2026-04-20 13:25 62.58399 19.94676 37622 ft 450 kts 195°
2026-04-20 13:25 62.55440 19.92521 37791 ft 450 kts 195°
2026-04-20 13:25 62.52468 19.90362 37931 ft 450 kts 195°
2026-04-20 13:26 62.49516 19.88221 38082 ft 451 kts 195°
2026-04-20 13:26 62.46555 19.86079 38209 ft 452 kts 195°
2026-04-20 13:26 62.43616 19.83955 38345 ft 452 kts 195°
2026-04-20 13:27 62.37643 19.79653 38413 ft 454 kts 195°
2026-04-20 13:27 62.31692 19.75382 38418 ft 451 kts 195°
2026-04-20 13:28 62.25769 19.71149 38425 ft 452 kts 195°
2026-04-20 13:28 62.19821 19.66917 38425 ft 452 kts 195°
2026-04-20 13:29 62.13920 19.62733 38424 ft 451 kts 195°
2026-04-20 13:29 62.07990 19.58548 38424 ft 453 kts 195°
2026-04-20 13:30 62.02000 19.54339 38421 ft 454 kts 195°
2026-04-20 13:30 61.96062 19.50181 38421 ft 453 kts 195°
2026-04-20 13:31 61.90107 19.46028 38424 ft 452 kts 195°
2026-04-20 13:31 61.84146 19.41890 38419 ft 453 kts 195°
2026-04-20 13:32 61.78160 19.37752 38418 ft 452 kts 195°
2026-04-20 13:32 61.72219 19.33663 38420 ft 453 kts 194°
2026-04-20 13:33 61.66246 19.29567 38416 ft 454 kts 194°
2026-04-20 13:33 61.60269 19.25485 38419 ft 454 kts 194°
2026-04-20 13:34 61.54313 19.21432 38367 ft 453 kts 194°
2026-04-20 13:34 61.51330 19.19407 38067 ft 449 kts 194°
2026-04-20 13:34 61.48387 19.17411 37616 ft 448 kts 194°
2026-04-20 13:34 61.45450 19.15426 37059 ft 449 kts 194°
2026-04-20 13:35 61.42465 19.13415 36491 ft 451 kts 193°
2026-04-20 13:35 61.39502 19.11423 36109 ft 453 kts 193°
2026-04-20 13:35 61.36549 19.09439 35907 ft 444 kts 193°
2026-04-20 13:35 61.33636 19.07476 35687 ft 439 kts 193°
2026-04-20 13:36 61.30775 19.05557 35387 ft 436 kts 192°
2026-04-20 13:36 61.27915 19.03645 34984 ft 432 kts 192°
2026-04-20 13:36 61.25084 19.01756 34565 ft 427 kts 192°
2026-04-20 13:36 61.22271 18.99884 34095 ft 424 kts 192°
2026-04-20 13:37 61.19490 18.98039 33638 ft 420 kts 192°
2026-04-20 13:37 61.16743 18.96222 33128 ft 418 kts 192°
2026-04-20 13:37 61.13974 18.94394 32653 ft 415 kts 192°
2026-04-20 13:37 61.11233 18.92588 32132 ft 413 kts 192°
2026-04-20 13:38 61.08548 18.90820 31613 ft 409 kts 192°
2026-04-20 13:38 61.05865 18.89056 30836 ft 404 kts 192°
2026-04-20 13:38 61.03204 18.87306 30082 ft 399 kts 192°
2026-04-20 13:38 61.00602 18.85600 29267 ft 395 kts 192°
2026-04-20 13:39 60.98005 18.83903 28483 ft 391 kts 192°
2026-04-20 13:39 60.95432 18.82328 28061 ft 380 kts 189°
2026-04-20 13:39 60.92872 18.81076 27813 ft 383 kts 187°
2026-04-20 13:39 60.90273 18.79969 27568 ft 387 kts 186°
2026-04-20 13:40 60.87652 18.78885 27270 ft 384 kts 186°
2026-04-20 13:40 60.85044 18.77789 26993 ft 380 kts 186°
2026-04-20 13:40 60.82476 18.76686 26721 ft 378 kts 187°
2026-04-20 13:40 60.79916 18.75568 26449 ft 377 kts 187°
2026-04-20 13:41 60.77385 18.74449 26183 ft 376 kts 187°
2026-04-20 13:41 60.74834 18.73310 25911 ft 375 kts 187°
2026-04-20 13:41 60.72286 18.72168 25643 ft 374 kts 187°
2026-04-20 13:41 60.69772 18.71037 25381 ft 373 kts 187°
2026-04-20 13:42 60.67246 18.69901 25118 ft 371 kts 187°
2026-04-20 13:42 60.62224 18.67644 24588 ft 370 kts 188°
2026-04-20 13:42 60.59745 18.66532 24327 ft 369 kts 188°
2026-04-20 13:43 60.57235 18.65407 24055 ft 365 kts 188°
2026-04-20 13:43 60.54782 18.64307 23681 ft 361 kts 188°
2026-04-20 13:43 60.52362 18.63226 23255 ft 358 kts 188°
2026-04-20 13:43 60.49936 18.62144 22814 ft 356 kts 188°
2026-04-20 13:44 60.47537 18.61077 22376 ft 354 kts 188°
2026-04-20 13:44 60.45151 18.60018 21865 ft 354 kts 188°
2026-04-20 13:44 60.42747 18.58954 21390 ft 353 kts 188°
2026-04-20 13:44 60.40379 18.57906 20920 ft 352 kts 188°
2026-04-20 13:45 60.38004 18.56856 20483 ft 350 kts 188°
2026-04-20 13:45 60.35645 18.55813 20061 ft 348 kts 188°
2026-04-20 13:45 60.33306 18.54781 19620 ft 346 kts 188°
2026-04-20 13:45 60.30981 18.53757 19215 ft 343 kts 189°
2026-04-20 13:46 60.28666 18.52738 18690 ft 340 kts 189°
2026-04-20 13:46 60.26342 18.51718 18115 ft 340 kts 189°
2026-04-20 13:46 60.24059 18.50718 17676 ft 338 kts 189°
2026-04-20 13:46 60.21751 18.49709 17411 ft 342 kts 189°
2026-04-20 13:47 60.19368 18.48679 17172 ft 365 kts 189°
2026-04-20 13:47 60.16853 18.47592 16811 ft 371 kts 189°
2026-04-20 13:47 60.14363 18.46506 16362 ft 370 kts 189°
2026-04-20 13:47 60.11829 18.45400 15910 ft 377 kts 189°
2026-04-20 13:48 60.09249 18.44276 15446 ft 377 kts 190°
2026-04-20 13:48 60.06728 18.43177 14954 ft 373 kts 190°
2026-04-20 13:48 60.04224 18.42087 14486 ft 369 kts 190°
2026-04-20 13:48 60.01743 18.41011 14032 ft 368 kts 190°
2026-04-20 13:49 59.99253 18.39935 13587 ft 366 kts 190°
2026-04-20 13:49 59.96762 18.38860 13114 ft 363 kts 190°
2026-04-20 13:49 59.94310 18.37804 12649 ft 360 kts 190°
2026-04-20 13:49 59.91871 18.36756 12184 ft 358 kts 190°
2026-04-20 13:50 59.89479 18.35731 11741 ft 356 kts 190°
2026-04-20 13:50 59.87068 18.34698 11295 ft 354 kts 189°
2026-04-20 13:50 59.84669 18.33671 10833 ft 352 kts 189°
2026-04-20 13:50 59.82293 18.32656 10384 ft 349 kts 189°
2026-04-20 13:51 59.79926 18.31646 9931 ft 348 kts 189°
2026-04-20 13:51 59.77573 18.30644 9500 ft 346 kts 189°
2026-04-20 13:51 59.75265 18.29626 9053 ft 343 kts 191°
2026-04-20 13:51 59.72966 18.28471 8579 ft 340 kts 192°
2026-04-20 13:52 59.70673 18.27265 8197 ft 339 kts 192°
2026-04-20 13:52 59.68406 18.26062 7711 ft 337 kts 192°
2026-04-20 13:52 59.66181 18.24884 7270 ft 333 kts 193°
2026-04-20 13:52 59.63934 18.23700 6857 ft 331 kts 192°
2026-04-20 13:53 59.61721 18.22538 6439 ft 331 kts 192°
2026-04-20 13:53 59.59512 18.21384 6009 ft 328 kts 193°
2026-04-20 13:53 59.57333 18.20255 5585 ft 326 kts 193°
2026-04-20 13:53 59.55176 18.19144 5191 ft 316 kts 193°
2026-04-20 13:54 59.53114 18.18088 4973 ft 295 kts 192°
2026-04-20 13:54 59.51193 18.17067 4795 ft 284 kts 197°
2026-04-20 13:54 59.49426 18.15302 4597 ft 281 kts 214°
2026-04-20 13:54 59.47880 18.13084 4261 ft 276 kts 217°
2026-04-20 13:55 59.46362 18.10792 3644 ft 277 kts 217°
2026-04-20 13:55 59.44850 18.08502 3067 ft 276 kts 218°
2026-04-20 13:55 59.43390 18.06099 2611 ft 273 kts 229°
2026-04-20 13:55 59.42500 18.02909 2522 ft 267 kts 259°
2026-04-20 13:56 59.42398 17.99300 2486 ft 264 kts 279°
2026-04-20 13:56 59.42651 17.95740 2487 ft 263 kts 286°
2026-04-20 13:56 59.43357 17.92494 2491 ft 255 kts 311°
2026-04-20 13:56 59.44623 17.90353 2495 ft 235 kts 334°
2026-04-20 13:57 59.46072 17.89228 2485 ft 214 kts 357°
2026-04-20 13:57 59.47489 17.89441 2503 ft 195 kts 16°
2026-04-20 13:57 59.48730 17.90069 2490 ft 179 kts 14°
2026-04-20 13:57 59.49916 17.90516 2490 ft 168 kts 12°
2026-04-20 13:58 59.51075 17.90906 2471 ft 172 kts 12°
2026-04-20 13:58 59.52246 17.91328 2267 ft 168 kts 13°
2026-04-20 13:58 59.53386 17.91744 2043 ft 170 kts 12°
2026-04-20 13:58 59.54546 17.92158 1807 ft 167 kts 12°
2026-04-20 13:59 59.55641 17.92548 1600 ft 154 kts 13°
2026-04-20 13:59 59.56671 17.92924 1369 ft 147 kts 12°
2026-04-20 13:59 59.57622 17.93265 1222 ft 136 kts 13°
2026-04-20 13:59 59.58550 17.93600 1001 ft 132 kts 12°
2026-04-20 14:00 59.59445 17.93920 838 ft 133 kts 12°
2026-04-20 14:00 59.60369 17.94236 663 ft 134 kts 11°
2026-04-20 14:00 59.61282 17.94572 481 ft 134 kts 13°
2026-04-20 14:00 59.62186 17.94901 292 ft 133 kts 14°
2026-04-20 14:01 59.63092 17.95235 142 ft 127 kts 12°
2026-04-20 14:01 59.63825 17.95524 124 ft 88 kts 10°
2026-04-20 14:01 59.64299 17.95673 120 ft 44 kts
2026-04-20 14:01 59.64583 17.95627 116 ft 31 kts 343°
2026-04-20 14:02 59.64758 17.95505 114 ft 25 kts 342°
2026-04-20 14:02 59.64923 17.95495 117 ft 22 kts 12°
2026-04-20 14:02 59.65069 17.95497 123 ft 20 kts 345°
2026-04-20 14:02 59.65209 17.95425 131 ft 22 kts 346°
2026-04-20 14:03 59.65365 17.95340 141 ft 25 kts 346°
2026-04-20 14:03 59.65550 17.95241 143 ft 26 kts 346°
2026-04-20 14:03 59.65709 17.95155 139 ft 20 kts 336°
2026-04-20 14:03 59.65739 17.94920 137 ft 20 kts 254°
2026-04-20 14:04 59.65701 17.94616 135 ft 27 kts 255°
2026-04-20 14:04 59.65651 17.94232 129 ft 29 kts 256°
2026-04-20 14:04 59.65602 17.93840 122 ft 28 kts 255°
2026-04-20 14:04 59.65553 17.93458 117 ft 29 kts 256°
2026-04-20 14:05 59.65505 17.93076 114 ft 28 kts 255°
2026-04-20 14:05 59.65432 17.92710 108 ft 26 kts 240°
2026-04-20 14:05 59.65331 17.92499 104 ft 16 kts 207°
2026-04-20 14:05 59.65260 17.92587 106 ft 12 kts 110°
2026-04-20 14:06 59.65237 17.92720 109 ft 7 kts 109°
2026-04-20 14:06 59.65209 17.92737 110 ft 5 kts 192°
2026-04-20 14:06 59.65171 17.92723 109 ft 6 kts 190°
2026-04-20 14:06 59.65149 17.92715 110 ft 0 kts 190°